+ View the NASA Portal
+ Center for Near-Earth Object Studies
IMPORTANT:
The SSD Announcement email list is now available. Major changes are coming in the near future, including possible hostname and/or URL changes. To be notified of such changes, subscribe to this email list.
Please visit
this page
for more details.
Don't show this message again
JPL Small-Body Database Browser
Search:
[
help
]
437418 (2013 WV106)
Classification:
Main-belt Asteroid
SPK-ID:
2437418
[
Ephemeris
|
Orbit Diagram
|
Orbital Elements
|
Mission Design
|
Physical Parameters
|
Discovery Circumstances
]
[ show orbit diagram ]
Orbital Elements at Epoch 2458600.5 (2019-Apr-27.0) TDB
Reference:
JPL 17
(heliocentric ecliptic J2000)
Element
Value
Uncertainty (1-sigma)
Units
e
.1781000557953831
2.4686e-07
a
2.574947033341919
4.117e-08
au
q
2.116348823033567
6.4511e-07
au
i
8.02605215813257
1.2618e-05
deg
node
220.8617477901745
3.7065e-05
deg
peri
198.95603028
6.2933e-05
deg
M
118.6111379389012
3.7798e-05
deg
t
p
2458103.251079877656
(2017-Dec-15.75107988)
0.00015445
TDB
period
1509.214179668818
4.13
3.6196e-05
9.91e-08
d
yr
n
.2385347320809022
5.7208e-09
deg/d
Q
3.033545243650271
4.8503e-08
au
Orbit Determination Parameters
# obs. used (total)
208
data-arc span
6302 days (17.25 yr)
first obs. used
2002-02-07
last obs. used
2019-05-11
planetary ephem.
DE431
SB-pert. ephem.
SB431-N16
condition code
0
norm. resid. RMS
.54304
source
ORB
producer
Otto Matic
solution date
2019-May-30 10:09:55
Additional Information
Earth MOID
= 1.12989 au
Jupiter MOID
= 2.31969 au
T_jup
= 3.392
[ show covariance matrix ]
[
Ephemeris
|
Orbit Diagram
|
Orbital Elements
|
Mission Design
|
Physical Parameters
|
Discovery Circumstances
]
Physical Parameter Table
Parameter
Symbol
Value
Units
Sigma
Reference
Notes
absolute magnitude
H
16.6
n/a
MPO437696
437418 (2013 WV106)
Discovered 2013-Nov-12 by PMO NEO Survey Program at XuYi
Reference:
Last Updated:
2015-06-04
Alternate Designations
2013 WV106
= 2013 SH8
[
Ephemeris
|
Orbit Diagram
|
Orbital Elements
|
Mission Design
|
Physical Parameters
|
Discovery Circumstances
]
2019-Dec-14 19:12 UT
(server date/time)
Site Manager:
Ryan S. Park
Webmaster
:
Alan B. Chamberlin